User: anonymous   Login
Location: Champaign/Urbana Astronomical Society Observatory
(40.0333°N, 88.2833°W)
Time: 01:19:36
(UTC-06:00)
Language:

BEESAT 3 - Orbit

View from above orbital plane
View from above orbital plane
View from above satellite
View from above satellite

Ground track
Ground track

The orbit data is extracted from the following two-line orbital elements,

1 39134U 13015E   19325.85252128 +.00001294 +00000-0 +67304-4 0  9993
2 39134 064.8631 234.3851 0038012 277.4957 082.1852 15.20517094363957
Epoch (UTC): 21 November 2019 20:27:37
Eccentricity: 0.0038012
inclination: 64.8631°
perigee height: 478 km
apogee height: 530 km
right ascension of ascending node: 234.3851°
argument of perigee: 277.4957°
revolutions per day: 15.20517094
mean anomaly at epoch: 82.1852°
orbit number at epoch: 36395

The dashed part of the orbit path shows where the satellite is in the earth's shadow,  

DLR